SCP
0 0 0 0 0 0 0 0 0 0 0 0 0 0 0 0 0 0 0 0 0 0 0 0 0 0 -0 -0 -0 -0 0 0 0 0 0 0 0 0 0 0 0 0 0 0
0 0 0 0 0 0 0 0 0 0 0 0 0 0 0 0 0 0 0 0 0 0 0 0 0 0 0 0 0 0 -0 -0 -0 -0 0 0 0 0 0 0 0 0 0 0
0 0 0 0 0 0 0 0 0 0 0 0 0 0 0 0 0 0 0 0 0 0 0 0 0 0 0 0 0 0 0 0 -0 -0 -0 0 0 0 0 0 0 0 0 0
0 0 0 0 0 0 0 0 0 0 0 0 0 0 0 0 0 0 0 0 0 0 0 0 0 0 0 0 0 0 0 0 0 0 0 0 0 0 0 0 0 0 0 0
0 0 0 0 0 0 0 0 0 0 0 0 0 0 0 0 0 0 0 0 0 0 0 0 0 0 0 0 0 0 0 0 0 0 0 0 0 0 0 0 0 0 0 0
0 0 0 0 0 0 0 0 0 0 0 0 0 0 0 0 0 0 0 0 0 0 0 0 0 0 0 0 0 0 0 0 0 0 0 0 0 0 0 0 0 0 0 0
0 0 0 0 0 0 0 0 0 0 0 0 0 0 0 0 0 0 0 0 0 0 0 0 0 0 0 0 0 0 0 0 0 0 0 0 0 0 0 0 0 0 0 0
0 0 0 0 0 0 0 0 0 0 0 0 0 0 0 0 0 0 0 0 0 0 0 0 0 0 0 0 0 0 0 0 0 0 0 0 0 0 0 0 0 0 0 0
0 0 0 0 0 0 0 0 0 0 0 0 0 0 0 0 0 0 0 0 0 0 0 0 0 0 0 0 0 0 0 0 0 0 0 0 0 0 0 0 0 0 0 0
0 0 0 0 0 0 0 0 0 0 0 0 0 0 0 0 0 0 0 0 0 0 0 0 0 0 0 0 0 0 0 0 0 0 0 0 0 0 0 0 0 0 0 0
0 0 0 0 0 0 0 0 0 0 0 0 0 0 0 0 0 0 0 0 0 0 0 0 0 0 0 0 0 0 0 0 0 0 0 0 0 0 0 0 0 0 0 0
0 0 0 0 0 0 0 0 0 0 0 0 0 0 0 0 0 0 0 0 0 0 0 0 0 0 0 0 0 0 0 0 0 0 0 0 0 0 0 0 0 0 0 0
0 0 0 0 0 0 0 0 0 0 0 0 0 0 0 0 0 0 0 0 0 0 0 0 0 0 0 0 0 0 0 0 0 0 0 0 0 0 0 0 0 0 0 0
0 0 0 0 0 0 0 0 0 0 0 0 0 0 0 0 0 0 0 0 0 0 0 0 0 0 0 0 0 0 0 0 0 0 0 0 0 0 0 0 0 0 0 0
0 0 0 0 0 0 0 0 0 0 0 0 0 0 0 0 0 0 0 0 0 0 0 0 0 0 0 0 0 0 0 0 0 0 0 0 0 0 0 0 0 0 0 0
0 0 0 0 0 0 0 0 0 0 0 0 0 0 0 0 0 0 0 0 0 0 0 0 0 0 0 0 0 0 0 0 0 0 0 0 0 0 0 0 0 0 0 0
0 0 0 0 0 0 0 0 0 0 0 0 0 0 0 0 -0 0 0 0 0 0 0 0 0 0 0 0 0 0 0 0 0 0 0 0 0 0 0 0 0 0 0 0
-0 -0 0 0 0 0 0 0 0 0 0 0 0 0 0 0 -0 0 0 0 0 0 0 0 0 0 0 0 0 0 0 0 0 0 0 0 0 0 0 0 0 0 0 0
-0 -0 0 0 0 0 0 -0 0 0 0 0 0 0 0 0 -0 0 0 0 0 0 0 0 0 0 0 0 0 0 0 0 0 0 0 0 0 0 0 0 0 0 0 0
0 0 0 0 0 0 0 0 0 0 0 0 0 0 0 -0 -0 -0 0 0 0 0 0 0 0 0 0 0 0 0 0 0 0 0 0 0 0 0 0 0 0 0 0 0
0 0 0 0 0 -0 0 0 0 -0 0 0 0 0 0 0 0 0 -0 0 0 0 0 0 0 0 0 0 0 0 0 0 0 0 0 0 0 0 0 0 0 0 0 0
0 0 0 0 0 -0 0 0 0 0 0 0 0 0 0 0 0 0 0 0 0 0 0 0 0 0 0 0 0 0 0 0 0 0 0 0 0 0 0 0 0 0 0 0
0 0 0 0 0 -0 -0 -0 -0 -0 -0 0 -0 0 0 -0 0 0 0 0 0 0 0 0 0 0 0 0 0 0 0 0 0 0 0 0 0 0 0 0 0 0 0 0
0 0 -0 -0 0 -0 -0 -0 -0 0 -0 -0 -0 0 0 -0 0 0 0 0 0 0 0 0 0 0 0 0 0 0 0 0 0 0 0 0 0 0 0 0 0 0 0 0
0 0 -0 0 0 0 -0 0 0 -0 -0 0 0 -0 0 0 0 0 0 0 0 0 0 0 0 0 0 0 0 0 0 0 0 0 0 0 0 0 0 0 0 0 0 0
0 0 0 -0 0 0 0 -0 -0 -0 -0 0 0 0 -0 -0 0 -0 0 0 0 0 0 0 -0 -0 -0 -0 0 0 0 0 0 0 0 0 0 0 0 0 0 0 0 0
0 0 0 0 -0 0 0 0 -0 -0 0 -0 -0 -0 -0 -0 -0 -0 -0 0 0 0 0 -0 -0 0 -0 -0 -0 0 0 0 0 0 0 0 0 0 0 0 0 0 0 0
Wind_Speed_500mb
40 43 44 45 47 38 30 10 7 10 28 9 13 10 11 3 7 10 8 5 7 7 14 12 12 14 9 14 17 12 6 2 7 7 6 9 4 9 12 8 10 4 7 11
49 53 53 50 51 49 42 14 22 12 37 8 11 11 8 7 11 12 10 10 15 6 7 8 16 11 5 16 10 7 10 6 5 3 3 3 8 11 7 7 5 11 11 10
55 47 44 41 36 37 33 11 6 7 27 32 8 10 11 11 12 9 12 7 5 7 10 10 7 9 5 12 6 5 8 6 12 10 6 10 10 16 18 12 6 8 12 6
42 44 47 42 35 26 19 9 8 5 5 12 18 15 10 13 7 11 13 7 18 14 10 10 11 12 7 7 9 7 6 9 13 12 11 7 9 13 21 20 12 13 13 18
46 44 43 41 38 29 16 12 12 19 29 36 17 13 8 18 19 15 12 14 12 25 14 15 6 15 11 12 10 12 7 6 5 6 10 8 9 12 23 26 18 22 9 18
37 38 40 41 39 29 4 18 21 13 16 18 20 14 17 15 9 17 21 15 10 15 32 34 4 7 6 17 17 16 13 10 8 7 13 6 13 26 28 16 16 23 17 10
31 34 35 36 33 29 20 15 20 11 17 22 23 31 34 19 18 16 25 12 8 7 10 4 6 5 5 7 14 13 11 8 8 6 9 6 15 5 7 35 14 22 10 14
34 34 33 32 31 28 23 17 13 11 8 20 29 35 21 40 38 30 27 34 25 12 5 4 7 6 6 13 10 7 1 8 5 8 9 11 7 9 13 15 13 21 24 25
35 35 35 33 30 27 26 20 17 14 14 11 19 16 32 27 24 24 41 25 21 17 6 6 11 11 12 10 4 8 6 6 4 7 8 15 2 2 15 11 7 3 19 28
33 33 34 32 28 27 26 23 20 15 14 19 20 10 10 25 16 11 13 5 6 18 7 9 10 12 6 12 15 10 7 4 17 17 9 10 5 15 12 10 8 6 27 47
39 36 35 34 31 27 26 23 26 18 13 38 22 17 27 36 25 8 15 6 10 5 7 9 9 8 11 11 11 16 16 17 8 7 7 16 10 10 10 7 17 26 42 46
44 38 37 35 29 26 25 20 17 23 25 35 54 45 32 48 55 38 16 22 23 6 6 6 7 8 8 16 17 4 10 11 11 15 7 11 22 20 16 7 33 28 39 50
39 41 33 32 31 25 24 30 28 26 31 39 26 34 33 31 26 32 14 18 16 12 17 6 5 9 4 8 9 5 6 18 6 11 9 10 15 18 21 40 46 43 49 52
31 36 32 31 31 29 28 32 33 28 20 10 24 17 26 36 34 32 32 42 54 52 43 9 6 5 8 2 3 8 8 13 10 9 10 26 24 27 35 40 44 47 43 44
34 30 31 31 30 30 36 36 32 24 21 10 26 56 24 12 36 40 35 42 38 26 7 8 4 11 3 4 8 8 17 7 3 4 5 20 23 36 42 49 45 48 50 42
31 33 31 33 34 33 26 9 9 8 9 13 7 22 42 18 20 26 33 37 32 19 8 6 6 10 4 6 7 23 37 39 8 8 52 61 52 47 46 46 40 40 40 34
30 31 33 40 30 25 15 9 20 22 25 7 9 8 4 11 21 22 26 17 24 24 9 8 9 14 16 7 6 14 44 60 50 40 50 48 37 34 45 43 36 31 30 24
31 35 38 32 24 19 11 10 17 18 13 13 5 7 6 21 11 11 12 10 7 21 14 10 7 10 11 9 21 38 34 54 62 57 55 49 44 39 34 27 23 20 19 14
34 34 26 11 3 3 6 27 28 18 12 11 7 8 6 25 12 11 10 7 8 16 9 9 9 7 11 15 30 41 49 41 35 41 42 39 36 28 23 20 19 16 14 12
30 17 9 4 6 27 19 2 3 1 1 4 4 18 6 21 15 6 11 11 6 4 8 15 10 14 36 39 39 38 39 38 36 37 35 27 25 21 20 18 15 13 13 14
19 12 6 17 16 8 7 5 6 6 4 11 13 13 10 12 6 6 11 5 7 6 7 5 7 6 16 30 36 35 33 30 27 22 17 16 16 16 17 16 14 15 17 18
18 13 10 13 12 7 5 4 6 6 6 11 14 18 15 12 12 7 10 6 6 8 5 6 5 6 24 27 29 28 26 23 22 21 19 19 18 19 18 18 20 19 21 20
7 11 6 9 9 10 10 9 6 5 19 17 28 12 13 12 16 4 6 8 7 3 7 6 6 19 24 24 23 22 22 23 26 26 23 21 19 19 20 22 20 24 26 26
6 9 11 7 8 8 8 9 7 12 23 33 32 12 12 9 9 5 8 5 3 6 7 7 7 23 24 23 24 28 28 31 32 31 32 31 31 29 27 25 26 27 28 27
11 12 9 7 10 16 18 25 21 23 33 21 14 7 8 7 7 7 8 9 9 9 7 4 22 26 24 26 31 32 34 37 35 31 31 33 33 33 32 29 30 26 24 26
11 17 8 27 10 23 28 30 25 32 34 18 6 4 8 10 5 11 11 7 9 6 8 25 25 28 28 36 35 33 36 34 30 30 31 33 32 33 33 28 24 26 31 33
10 10 35 24 18 20 26 32 40 33 14 5 8 11 4 5 8 8 8 7 6 21 25 28 26 23 31 36 35 30 32 28 29 34 31 30 27 28 28 27 30 28 30 27
Wind_Direction_500mb
344 341 340 342 346 349 346 311 261 205 173 165 209 216 246 272 192 218 280 283 281 240 191 205 220 218 197 165 164 187 185 181 161 198 52 20 329 204 172 140 223 210 151 262
330 327 326 325 334 345 349 307 284 228 185 217 222 246 228 227 196 205 202 241 236 206 230 221 208 190 114 159 195 195 184 228 120 333 356 27 229 203 253 87 60 205 146 248
334 337 334 341 331 327 337 299 280 184 207 262 288 292 246 213 222 262 223 262 183 187 229 253 273 186 189 188 230 132 89 251 204 189 166 133 197 196 186 164 144 190 221 175
331 328 330 337 343 345 327 248 270 317 222 247 252 254 306 299 256 224 220 251 215 187 236 199 220 222 127 208 203 198 189 216 216 249 163 203 205 179 187 201 194 169 232 198
330 336 339 336 328 330 312 301 348 331 297 298 275 263 237 257 254 167 220 232 215 223 229 194 188 181 171 195 161 191 192 236 106 281 184 178 259 257 195 218 229 264 250 266
333 338 341 344 347 351 289 260 289 302 284 297 298 270 277 292 1 224 238 225 257 232 239 258 337 323 157 162 158 185 162 184 155 235 138 149 287 217 211 192 205 209 203 231
324 329 339 345 347 354 345 315 308 268 268 276 276 288 305 290 294 300 302 297 268 284 272 202 120 84 37 206 184 194 179 192 168 167 124 203 238 120 177 216 211 209 221 101
317 321 325 332 339 343 341 317 308 290 281 273 267 274 301 313 313 286 263 269 248 275 218 243 188 194 193 225 193 235 343 193 210 169 197 270 285 197 171 170 244 204 208 122
304 309 314 316 318 323 330 319 318 295 303 236 325 318 288 275 279 285 292 241 246 197 224 232 222 202 190 185 126 35 336 28 189 162 202 218 252 107 108 88 275 299 135 142
323 313 306 309 311 309 307 305 296 317 277 293 342 302 314 318 298 254 288 289 271 203 210 214 220 231 205 175 177 164 144 194 217 226 240 272 146 146 154 141 223 74 126 141
305 302 319 315 298 302 312 299 283 280 259 289 278 296 295 293 287 306 352 271 215 201 238 212 212 234 224 223 156 167 164 168 184 189 242 253 123 100 172 133 106 118 123 135
317 315 295 318 321 311 307 298 289 283 250 268 297 300 305 264 261 277 274 309 308 305 256 257 232 243 200 210 236 165 181 185 183 189 190 58 41 58 69 108 120 111 126 131
306 309 314 300 310 315 311 302 306 290 273 296 277 288 296 291 282 266 262 265 281 315 7 313 293 256 15 216 220 237 87 5 140 141 91 79 73 76 100 121 113 118 122 126
301 305 308 313 304 297 302 304 307 287 283 267 290 280 300 300 279 270 261 267 282 283 299 302 232 215 336 359 65 56 346 325 15 76 94 93 82 108 122 118 121 110 107 112
311 312 313 309 306 297 292 296 302 273 259 293 295 299 297 307 267 268 270 272 264 270 247 220 248 317 293 98 86 39 341 353 355 42 108 73 108 112 112 109 107 110 107 103
306 309 314 315 309 307 317 307 259 269 296 331 296 297 295 290 278 272 277 276 269 248 245 246 226 53 342 59 56 7 21 41 167 86 98 101 105 103 104 104 105 105 106 109
310 310 310 310 303 293 270 269 300 295 307 294 290 270 252 294 307 282 283 289 243 220 220 207 54 36 53 37 70 31 48 55 67 87 98 74 88 81 92 90 92 99 102 102
311 312 312 311 302 287 279 281 288 303 276 228 249 270 286 9 311 304 309 274 232 38 26 51 43 46 59 66 47 44 58 62 63 68 77 84 89 82 77 92 99 90 76 68
321 319 318 334 356 284 281 298 293 279 243 319 310 360 327 343 314 299 312 306 70 35 34 31 49 52 55 57 57 50 52 55 72 73 69 67 62 61 61 56 55 51 34 14
332 340 5 294 333 316 319 21 359 262 315 262 280 346 308 334 331 302 341 323 93 82 60 55 58 65 62 63 62 57 54 53 54 52 40 40 43 36 33 29 17 6 349 338
359 351 315 318 332 5 8 11 7 353 162 14 341 1 325 339 333 316 11 326 35 71 46 64 55 57 49 56 54 49 47 45 47 49 43 33 25 11 5 1 356 338 329 323
332 324 334 350 12 14 31 3 358 29 26 7 345 328 317 317 337 311 352 25 41 69 55 73 72 45 40 47 42 35 32 30 31 22 14 9 3 356 350 341 334 327 318 314
15 15 6 12 356 32 5 21 10 25 347 354 340 325 339 328 2 342 359 57 53 323 50 63 52 41 37 36 27 22 16 8 5 4 358 352 344 338 331 329 321 312 315 319
36 32 19 33 15 49 22 2 339 339 339 330 326 321 1 354 7 335 53 19 5 73 64 63 50 32 23 15 8 4 358 352 353 353 349 345 343 340 337 333 326 319 316 315
46 32 31 31 54 48 16 3 352 351 343 339 337 301 1 345 50 22 18 36 52 40 40 55 35 11 5 358 351 353 345 345 345 346 338 334 332 328 326 326 321 322 320 315
51 38 3 356 46 15 9 359 349 345 340 331 335 348 50 32 40 34 8 56 36 37 31 23 3 359 349 345 348 341 336 337 339 333 326 323 326 328 328 338 345 330 321 319
43 41 28 28 33 7 5 357 350 357 1 24 23 46 349 311 38 38 17 38 23 15 13 1 354 349 340 338 337 337 336 344 334 327 334 335 340 340 340 337 327 326 325 327
Wind_Speed_850mb
40 43 44 45 47 38 30 10 7 10 28 9 13 10 11 3 7 10 8 5 7 7 14 12 12 14 9 14 17 12 6 2 7 7 6 9 4 9 12 8 10 4 7 11
49 53 53 50 51 49 42 14 22 12 37 8 11 11 8 7 11 12 10 10 15 6 7 8 16 11 5 16 10 7 10 6 5 3 3 3 8 11 7 7 5 11 11 10
55 47 44 41 36 37 33 11 6 7 27 32 8 10 11 11 12 9 12 7 5 7 10 10 7 9 5 12 6 5 8 6 12 10 6 10 10 16 18 12 6 8 12 6
42 44 47 42 35 26 19 9 8 5 5 12 18 15 10 13 7 11 13 7 18 14 10 10 11 12 7 7 9 7 6 9 13 12 11 7 9 13 21 20 12 13 13 18
46 44 43 41 38 29 16 12 12 19 29 36 17 13 8 18 19 15 12 14 12 25 14 15 6 15 11 12 10 12 7 6 5 6 10 8 9 12 23 26 18 22 9 18
37 38 40 41 39 29 4 18 21 13 16 18 20 14 17 15 9 17 21 15 10 15 32 34 4 7 6 17 17 16 13 10 8 7 13 6 13 26 28 16 16 23 17 10
31 34 35 36 33 29 20 15 20 11 17 22 23 31 34 19 18 16 25 12 8 7 10 4 6 5 5 7 14 13 11 8 8 6 9 6 15 5 7 35 14 22 10 14
34 34 33 32 31 28 23 17 13 11 8 20 29 35 21 40 38 30 27 34 25 12 5 4 7 6 6 13 10 7 1 8 5 8 9 11 7 9 13 15 13 21 24 25
35 35 35 33 30 27 26 20 17 14 14 11 19 16 32 27 24 24 41 25 21 17 6 6 11 11 12 10 4 8 6 6 4 7 8 15 2 2 15 11 7 3 19 28
33 33 34 32 28 27 26 23 20 15 14 19 20 10 10 25 16 11 13 5 6 18 7 9 10 12 6 12 15 10 7 4 17 17 9 10 5 15 12 10 8 6 27 47
39 36 35 34 31 27 26 23 26 18 13 38 22 17 27 36 25 8 15 6 10 5 7 9 9 8 11 11 11 16 16 17 8 7 7 16 10 10 10 7 17 26 42 46
44 38 37 35 29 26 25 20 17 23 25 35 54 45 32 48 55 38 16 22 23 6 6 6 7 8 8 16 17 4 10 11 11 15 7 11 22 20 16 7 33 28 39 50
39 41 33 32 31 25 24 30 28 26 31 39 26 34 33 31 26 32 14 18 16 12 17 6 5 9 4 8 9 5 6 18 6 11 9 10 15 18 21 40 46 43 49 52
31 36 32 31 31 29 28 32 33 28 20 10 24 17 26 36 34 32 32 42 54 52 43 9 6 5 8 2 3 8 8 13 10 9 10 26 24 27 35 40 44 47 43 44
34 30 31 31 30 30 36 36 32 24 21 10 26 56 24 12 36 40 35 42 38 26 7 8 4 11 3 4 8 8 17 7 3 4 5 20 23 36 42 49 45 48 50 42
31 33 31 33 34 33 26 9 9 8 9 13 7 22 42 18 20 26 33 37 32 19 8 6 6 10 4 6 7 23 37 39 8 8 52 61 52 47 46 46 40 40 40 34
30 31 33 40 30 25 15 9 20 22 25 7 9 8 4 11 21 22 26 17 24 24 9 8 9 14 16 7 6 14 44 60 50 40 50 48 37 34 45 43 36 31 30 24
31 35 38 32 24 19 11 10 17 18 13 13 5 7 6 21 11 11 12 10 7 21 14 10 7 10 11 9 21 38 34 54 62 57 55 49 44 39 34 27 23 20 19 14
34 34 26 11 3 3 6 27 28 18 12 11 7 8 6 25 12 11 10 7 8 16 9 9 9 7 11 15 30 41 49 41 35 41 42 39 36 28 23 20 19 16 14 12
30 17 9 4 6 27 19 2 3 1 1 4 4 18 6 21 15 6 11 11 6 4 8 15 10 14 36 39 39 38 39 38 36 37 35 27 25 21 20 18 15 13 13 14
19 12 6 17 16 8 7 5 6 6 4 11 13 13 10 12 6 6 11 5 7 6 7 5 7 6 16 30 36 35 33 30 27 22 17 16 16 16 17 16 14 15 17 18
18 13 10 13 12 7 5 4 6 6 6 11 14 18 15 12 12 7 10 6 6 8 5 6 5 6 24 27 29 28 26 23 22 21 19 19 18 19 18 18 20 19 21 20
7 11 6 9 9 10 10 9 6 5 19 17 28 12 13 12 16 4 6 8 7 3 7 6 6 19 24 24 23 22 22 23 26 26 23 21 19 19 20 22 20 24 26 26
6 9 11 7 8 8 8 9 7 12 23 33 32 12 12 9 9 5 8 5 3 6 7 7 7 23 24 23 24 28 28 31 32 31 32 31 31 29 27 25 26 27 28 27
11 12 9 7 10 16 18 25 21 23 33 21 14 7 8 7 7 7 8 9 9 9 7 4 22 26 24 26 31 32 34 37 35 31 31 33 33 33 32 29 30 26 24 26
11 17 8 27 10 23 28 30 25 32 34 18 6 4 8 10 5 11 11 7 9 6 8 25 25 28 28 36 35 33 36 34 30 30 31 33 32 33 33 28 24 26 31 33
10 10 35 24 18 20 26 32 40 33 14 5 8 11 4 5 8 8 8 7 6 21 25 28 26 23 31 36 35 30 32 28 29 34 31 30 27 28 28 27 30 28 30 27
Wind_Direction_850mb
344 341 340 342 346 349 346 311 261 205 173 165 209 216 246 272 192 218 280 283 281 240 191 205 220 218 197 165 164 187 185 181 161 198 52 20 329 204 172 140 223 210 151 262
330 327 326 325 334 345 349 307 284 228 185 217 222 246 228 227 196 205 202 241 236 206 230 221 208 190 114 159 195 195 184 228 120 333 356 27 229 203 253 87 60 205 146 248
334 337 334 341 331 327 337 299 280 184 207 262 288 292 246 213 222 262 223 262 183 187 229 253 273 186 189 188 230 132 89 251 204 189 166 133 197 196 186 164 144 190 221 175
331 328 330 337 343 345 327 248 270 317 222 247 252 254 306 299 256 224 220 251 215 187 236 199 220 222 127 208 203 198 189 216 216 249 163 203 205 179 187 201 194 169 232 198
330 336 339 336 328 330 312 301 348 331 297 298 275 263 237 257 254 167 220 232 215 223 229 194 188 181 171 195 161 191 192 236 106 281 184 178 259 257 195 218 229 264 250 266
333 338 341 344 347 351 289 260 289 302 284 297 298 270 277 292 1 224 238 225 257 232 239 258 337 323 157 162 158 185 162 184 155 235 138 149 287 217 211 192 205 209 203 231
324 329 339 345 347 354 345 315 308 268 268 276 276 288 305 290 294 300 302 297 268 284 272 202 120 84 37 206 184 194 179 192 168 167 124 203 238 120 177 216 211 209 221 101
317 321 325 332 339 343 341 317 308 290 281 273 267 274 301 313 313 286 263 269 248 275 218 243 188 194 193 225 193 235 343 193 210 169 197 270 285 197 171 170 244 204 208 122
304 309 314 316 318 323 330 319 318 295 303 236 325 318 288 275 279 285 292 241 246 197 224 232 222 202 190 185 126 35 336 28 189 162 202 218 252 107 108 88 275 299 135 142
323 313 306 309 311 309 307 305 296 317 277 293 342 302 314 318 298 254 288 289 271 203 210 214 220 231 205 175 177 164 144 194 217 226 240 272 146 146 154 141 223 74 126 141
305 302 319 315 298 302 312 299 283 280 259 289 278 296 295 293 287 306 352 271 215 201 238 212 212 234 224 223 156 167 164 168 184 189 242 253 123 100 172 133 106 118 123 135
317 315 295 318 321 311 307 298 289 283 250 268 297 300 305 264 261 277 274 309 308 305 256 257 232 243 200 210 236 165 181 185 183 189 190 58 41 58 69 108 120 111 126 131
306 309 314 300 310 315 311 302 306 290 273 296 277 288 296 291 282 266 262 265 281 315 7 313 293 256 15 216 220 237 87 5 140 141 91 79 73 76 100 121 113 118 122 126
301 305 308 313 304 297 302 304 307 287 283 267 290 280 300 300 279 270 261 267 282 283 299 302 232 215 336 359 65 56 346 325 15 76 94 93 82 108 122 118 121 110 107 112
311 312 313 309 306 297 292 296 302 273 259 293 295 299 297 307 267 268 270 272 264 270 247 220 248 317 293 98 86 39 341 353 355 42 108 73 108 112 112 109 107 110 107 103
306 309 314 315 309 307 317 307 259 269 296 331 296 297 295 290 278 272 277 276 269 248 245 246 226 53 342 59 56 7 21 41 167 86 98 101 105 103 104 104 105 105 106 109
310 310 310 310 303 293 270 269 300 295 307 294 290 270 252 294 307 282 283 289 243 220 220 207 54 36 53 37 70 31 48 55 67 87 98 74 88 81 92 90 92 99 102 102
311 312 312 311 302 287 279 281 288 303 276 228 249 270 286 9 311 304 309 274 232 38 26 51 43 46 59 66 47 44 58 62 63 68 77 84 89 82 77 92 99 90 76 68
321 319 318 334 356 284 281 298 293 279 243 319 310 360 327 343 314 299 312 306 70 35 34 31 49 52 55 57 57 50 52 55 72 73 69 67 62 61 61 56 55 51 34 14
332 340 5 294 333 316 319 21 359 262 315 262 280 346 308 334 331 302 341 323 93 82 60 55 58 65 62 63 62 57 54 53 54 52 40 40 43 36 33 29 17 6 349 338
359 351 315 318 332 5 8 11 7 353 162 14 341 1 325 339 333 316 11 326 35 71 46 64 55 57 49 56 54 49 47 45 47 49 43 33 25 11 5 1 356 338 329 323
332 324 334 350 12 14 31 3 358 29 26 7 345 328 317 317 337 311 352 25 41 69 55 73 72 45 40 47 42 35 32 30 31 22 14 9 3 356 350 341 334 327 318 314
15 15 6 12 356 32 5 21 10 25 347 354 340 325 339 328 2 342 359 57 53 323 50 63 52 41 37 36 27 22 16 8 5 4 358 352 344 338 331 329 321 312 315 319
36 32 19 33 15 49 22 2 339 339 339 330 326 321 1 354 7 335 53 19 5 73 64 63 50 32 23 15 8 4 358 352 353 353 349 345 343 340 337 333 326 319 316 315
46 32 31 31 54 48 16 3 352 351 343 339 337 301 1 345 50 22 18 36 52 40 40 55 35 11 5 358 351 353 345 345 345 346 338 334 332 328 326 326 321 322 320 315
51 38 3 356 46 15 9 359 349 345 340 331 335 348 50 32 40 34 8 56 36 37 31 23 3 359 349 345 348 341 336 337 339 333 326 323 326 328 328 338 345 330 321 319
43 41 28 28 33 7 5 357 350 357 1 24 23 46 349 311 38 38 17 38 23 15 13 1 354 349 340 338 337 337 336 344 334 327 334 335 340 340 340 337 327 326 325 327